KE8BSM Weather Reports


Display with metric or nautical units.
time (UTC)temp
F
wind
direction
speed
MPH
gust
MPH
rain 1hr
in
rain 24hr
in
rain mn
in
humidity
%
barometer
mb
20260504081516 50 168 2.0 2.0 0.00 0.01 0.00 81 1003.3
20260504080516 50 189 1.0 2.0 0.00 0.01 0.00 80 1003.4
20260504050516 51 163 1.0 2.0 0.00 0.01 0.00 78 1005.1
20260504045637 51 166 1.0 2.0 0.00 0.01 0.00 77 1005.2
20260504044516 51 201 1.0 2.0 0.00 0.01 0.00 77 1005.2
20260504043517 51 182 1.0 2.0 0.00 0.01 0.00 77 1005.4
20260504042517 51 205 0.0 1.0 0.00 0.01 0.00 77 1005.5
20260504041517 51 198 1.0 3.0 0.00 0.01 0.00 77 1005.5
20260504040517 51 219 2.0 3.0 0.00 0.01 0.00 76 1005.6
20260504035538 52 188 1.0 2.0 0.00 0.01 0.01 76 1005.6
20260504034538 52 180 3.0 5.0 0.00 0.01 0.01 76 1005.7
20260504033518 52 171 1.0 3.0 0.00 0.01 0.01 76 1005.8
20260504032515 52 167 2.0 4.0 0.00 0.01 0.01 75 1005.9
20260504031555 52 201 1.0 2.0 0.00 0.01 0.01 76 1006.0
20260504030515 52 180 2.0 4.0 0.00 0.01 0.01 74 1006.0
20260504025515 52 183 2.0 4.0 0.00 0.01 0.01 76 1006.1
20260504024515 52 177 3.0 4.0 0.00 0.01 0.01 73 1006.1
20260504023515 52 167 1.0 3.0 0.00 0.01 0.01 74 1006.1
20260504022516 53 185 1.0 2.0 0.00 0.01 0.01 73 1006.1
20260504021516 53 207 2.0 3.0 0.00 0.01 0.01 73 1006.1
20260504020516 53 198 1.0 3.0 0.00 0.01 0.01 71 1006.1
20260504015536 53 181 3.0 5.0 0.00 0.01 0.01 71 1006.1
20260504014516 53 203 2.0 3.0 0.00 0.01 0.01 69 1006.0
20260504013516 54 170 2.0 3.0 0.00 0.01 0.01 69 1006.0
20260504012536 54 153 2.0 3.0 0.00 0.01 0.01 68 1006.0
20260504011517 54 176 3.0 4.0 0.00 0.01 0.01 67 1006.0
20260504010517 55 150 3.0 4.0 0.00 0.01 0.01 67 1005.9
20260504005537 55 151 2.0 4.0 0.00 0.01 0.01 66 1005.9
20260504004518 55 169 2.0 3.0 0.00 0.01 0.01 64 1006.0
20260504003518 56 168 3.0 6.0 0.00 0.01 0.01 63 1006.0
20260504002517 56 178 4.0 7.0 0.00 0.01 0.01 62 1006.0
20260504001518 56 175 2.0 3.0 0.00 0.01 0.01 62 1006.0
20260504000515 56 203 1.0 3.0 0.00 0.01 0.01 62 1006.2
20260503235535 56 165 3.0 4.0 0.00 0.01 0.01 62 1006.4
20260503234518 56 219 1.0 3.0 0.00 0.01 0.01 61 1006.3
20260503233516 57 216 2.0 5.0 0.00 0.01 0.01 62 1006.4
20260503232515 57 226 6.0 9.0 0.00 0.01 0.01 60 1006.5
20260503231516 57 177 4.0 7.0 0.00 0.01 0.01 60 1006.7
20260503230516 57 205 4.0 5.0 0.00 0.01 0.01 60 1006.9
20260503225516 57 255 4.0 11.0 0.00 0.01 0.01 58 1007.0
20260503224516 57 97 2.0 3.0 0.00 0.01 0.01 59 1007.1
20260503223517 57 172 4.0 6.0 0.00 0.01 0.01 58 1007.4
20260503222517 56 210 4.0 6.0 0.00 0.01 0.01 60 1007.7
20260503221517 56 184 3.0 7.0 0.00 0.01 0.01 58 1007.7
20260503220557 56 210 5.0 7.0 0.00 0.01 0.01 61 1008.0
20260503215517 56 211 3.0 7.0 0.00 0.01 0.01 60 1008.2
20260503214517 56 226 3.0 5.0 0.00 0.01 0.01 62 1008.2
20260503213517 55 169 3.0 6.0 0.00 0.01 0.01 64 1008.2
20260503212517 54 175 3.0 5.0 0.00 0.01 0.01 67 1008.3
20260503211537 53 181 2.0 4.0 0.00 0.01 0.01 66 1008.5
20260503210518 53 246 5.0 9.0 0.00 0.01 0.01 69 1008.6
20260503205518 53 182 4.0 6.0 0.00 0.01 0.01 68 1008.6
20260503204515 52 190 1.0 4.0 0.00 0.01 0.01 68 1008.7
20260503203515 52 167 2.0 4.0 0.00 0.01 0.01 70 1008.8
20260503202515 52 213 3.0 4.0 0.01 0.01 0.01 71 1009.1
20260503201515 51 181 3.0 4.0 0.01 0.01 0.01 74 1009.4
20260503200556 51 212 3.0 4.0 0.01 0.01 0.01 75 1009.7
20260503195636 50 192 5.0 10.0 0.01 0.01 0.01 76 1009.8
20260503194516 51 222 4.0 9.0 0.01 0.01 0.01 77 1010.2
20260503193517 52 273 5.0 9.0 0.00 0.00 0.00 72 1010.4
20260503192517 54 230 6.0 9.0 0.00 0.00 0.00 65 1010.2
20260503191517 55 187 5.0 8.0 0.00 0.00 0.00 63 1010.2
20260503190516 56 209 7.0 13.0 0.00 0.00 0.00 60 1010.2
20260503185537 57 232 6.0 9.0 0.00 0.00 0.00 58 1010.2
20260503184517 57 217 6.0 9.0 0.00 0.00 0.00 57 1010.2
20260503183517 58 275 6.0 9.0 0.00 0.00 0.00 55 1010.1
20260503182517 57 229 8.0 10.0 0.00 0.00 0.00 54 1010.2
20260503181518 58 226 5.0 9.0 0.00 0.00 0.00 53 1010.2
20260503180517 58 204 6.0 15.0 0.00 0.00 0.00 53 1010.3
20260503175518 58 226 6.0 10.0 0.00 0.00 0.00 53 1010.2
20260503174518 57 291 6.0 12.0 0.00 0.00 0.00 53 1010.5
20260503173518 57 236 8.0 14.0 0.00 0.00 0.00 54 1010.6
20260503172515 57 269 8.0 13.0 0.00 0.00 0.00 53 1010.7
20260503171536 57 233 5.0 8.0 0.00 0.00 0.00 56 1010.8
20260503170535 57 241 3.0 4.0 0.00 0.00 0.00 56 1011.0
20260503150516 53 295 5.0 8.0 0.00 0.00 0.00 56 1011.6
20260503130537 51 220 6.0 10.0 0.00 0.00 0.00 58 1012.4
20260503110519 44 0.0 0.0 0.00 0.00 0.00 69 1012.3